sat.trackr.live / text

‹ back to catalog

STARLINK-35715

NORAD 66841 · 2025-280W

PAYLOAD ACTIVE UNKNOWN

§ Identity

Operator
Country
US
Launch date
2025-12-02
Launch site
AFWTR
Launch vehicle
Mass (kg)
RCS (m²)

Purposes: comms

External: N2YO · Heavens-Above · Gunter

§ Orbital elements

Epoch: 2026-09-20T05:40:30.163008Z

Period
96.11 min
Inclination
70.0007°
Eccentricity
0.0003080
Mean motion
14.98337218 rev/d
Perigee alt
569.9 km
Apogee alt
574.2 km
Semi-major
6,950.2 km
B*
2.8395e-4
RAAN
204.0725°
Arg perigee
269.1779°
Mean anomaly
90.9027°
Rev number
4,521

§ Raw data

STARLINK-357151 66841U 25280W   26263.23646022  .00003297  00000+0  28395-3 0  99962 66841  70.0007 204.0725 0003080 269.1779  90.9027 14.98337218 45218

JSON: /api/v1/satellites/66841 · /tle

For live sub-satellite position, see the globe view (requires WebGL).

§ Visibility from observer

Set your observer location to see the next 7 days of passes ≥ 10°. The values pass through the URL so the page stays shareable.

No JS? Fill the form by hand. The geolocation button needs JavaScript.